Location: lozzo di cadore
(46.4899°N, 12.4508°E)
Time: 21:03:01
(UTC+01:00)

Envisat - Visible Passes

Search period start: 15 January 2021 00:00
Search period end: 25 January 2021 00:00
Orbit: 764 x 766 km, 98.1° (Epoch: 15 January)

Date Brightness Start Highest point End Pass type
(mag) Time Alt. Az. Time Alt. Az. Time Alt. Az.
15 Jan 5.1 05:08:17 10° NE 05:12:33 27° E 05:16:49 10° SSE visible
15 Jan 3.3 06:46:56 10° N 06:51:44 43° WNW 06:56:30 10° SW visible
15 Jan 5.5 18:05:09 10° SSW 18:09:17 25° W 18:13:28 10° NW visible
16 Jan 6.1 04:33:08 10° ENE 04:35:18 13° E 04:37:28 10° ESE visible
16 Jan 2.9 06:09:55 10° NNE 06:15:02 88° WNW 06:20:07 10° SSW visible
16 Jan 4.0 17:27:18 10° S 17:32:14 52° W 17:37:12 10° NNW visible
17 Jan 4.1 05:33:17 10° NNE 05:38:08 44° E 05:42:59 10° S visible
17 Jan 6.1 18:32:08 10° WSW 18:34:59 15° W 18:37:50 10° NW visible
18 Jan 5.4 04:57:10 10° NE 05:01:02 21° E 05:04:53 10° SE visible
18 Jan 3.1 06:35:26 10° N 06:40:23 53° WNW 06:45:18 10° SW visible
18 Jan 5.1 17:53:19 10° SSW 17:57:47 31° W 18:02:17 10° NNW visible
19 Jan 3.2 05:58:31 10° NNE 06:03:37 75° ESE 06:08:41 10° S visible
20 Jan 4.6 05:22:00 10° NNE 05:26:40 35° E 05:31:18 10° SSE visible
20 Jan 3.7 07:01:08 10° N 07:05:38 33° WNW 07:10:07 10° SW visible
20 Jan 5.9 18:19:55 10° SW 18:23:26 19° W 18:26:58 10° NW visible
21 Jan 5.7 04:46:11 10° NE 04:49:30 17° E 04:52:49 10° SE visible
21 Jan 2.9 06:23:57 10° N 06:29:00 66° WNW 06:34:02 10° SSW visible
21 Jan 4.7 17:41:35 10° SSW 17:46:18 38° W 17:51:03 10° NNW visible
22 Jan 3.5 05:47:09 10° NNE 05:52:11 60° E 05:57:12 10° S visible
22 Jan 6.4 18:48:05 10° W 18:49:11 11° W 18:50:18 10° WNW visible
23 Jan 5.0 05:10:47 10° NE 05:15:11 29° E 05:19:32 10° SSE visible
23 Jan 3.4 06:49:34 10° N 06:54:18 40° WNW 06:59:00 10° SW visible
23 Jan 5.6 18:07:54 10° SW 18:11:54 23° W 18:15:56 10° NW visible
24 Jan 6.0 04:35:24 10° ENE 04:37:57 14° E 04:40:29 10° ESE visible
24 Jan 2.9 06:12:30 10° NNE 06:17:37 82° WNW 06:22:41 10° SSW visible
24 Jan 4.2 17:29:56 10° S 17:34:49 48° W 17:39:45 10° NNW visible
